This demonstration page uses our WeatherBlox Daily Observations layout. Learn more.

Left ArrowRight Arrow

34.16533, -84.80231

Hourly Observations for March 3, 2022

Temp ( °F °C ) Dew Point ( °F °C ) Humidity (%) Winds ( mph kmh ) Pressure ( in mb ) Visibility ( mi km ) Precip ( " mm )
12:15 am 00:15 Mostly Clear 46 8 41 5 82 82 Calm 30.16 1021 10 16 0.00 0.00
12:35 am 00:35 Clear 46 8 39 4 76 76 Calm 30.16 1021 10 16 0.00 0.00
12:55 am 00:55 Clear 46 8 39 4 76 76 Calm 30.17 1022 10 16 0.00 0.00
1:15 am 01:15 Clear 45 7 41 5 87 87 Calm 30.17 1022 10 16 0.00 0.00
1:35 am 01:35 Clear 45 7 39 4 81 81 Calm 30.17 1022 10 16 0.00 0.00
1:55 am 01:55 Clear 45 7 39 4 81 81 Calm 30.17 1022 10 16 0.00 0.00
2:15 am 02:15 Clear 45 7 39 4 81 81 Calm 30.17 1022 10 16 0.00 0.00
2:35 am 02:35 Clear 43 6 39 4 87 87 Calm 30.17 1022 10 16 0.00 0.00
2:55 am 02:55 Clear 43 6 39 4 87 87 Calm 30.17 1022 10 16 0.00 0.00
3:15 am 03:15 Clear 43 6 37 3 81 81 Calm 30.17 1022 10 16 0.00 0.00
3:35 am 03:35 Clear 43 6 39 4 87 87 Calm 30.16 1021 10 16 0.00 0.00
3:55 am 03:55 Clear 41 5 39 4 93 93 Calm 30.17 1022 10 16 0.00 0.00
4:15 am 04:15 Clear 41 5 37 3 87 87 Calm 30.17 1022 10 16 0.00 0.00
4:35 am 04:35 Clear 41 5 39 4 93 93 Calm 30.17 1022 10 16 0.00 0.00
4:55 am 04:55 Clear 41 5 37 3 87 87 Calm 30.17 1022 10 16 0.00 0.00
5:15 am 05:15 Clear 41 5 39 4 93 93 Calm 30.18 1022 10 16 0.00 0.00
5:35 am 05:35 Clear 39 4 37 3 93 93 Calm 30.20 1023 10 16 0.00 0.00
5:55 am 05:55 Clear 39 4 37 3 93 93 Calm 30.20 1023 10 16 0.00 0.00
6:15 am 06:15 Clear 41 5 37 3 87 87 Calm 30.20 1023 10 16 0.00 0.00
6:35 am 06:35 Clear 39 4 37 3 93 93 Calm 30.22 1023 10 16 0.00 0.00
6:55 am 06:55 Clear 39 4 37 3 93 93 Calm 30.22 1023 10 16 0.00 0.00
7:15 am 07:15 Sunny 39 4 37 3 93 93 Calm 30.22 1023 10 16 0.00 0.00
7:35 am 07:35 Sunny 41 5 37 3 87 87 Calm 30.21 1023 10 16 0.00 0.00
7:55 am 07:55 Sunny 41 5 39 4 93 93 Calm 30.22 1024 10 16 0.00 0.00
8:15 am 08:15 Sunny 43 6 39 4 87 87 Calm 30.22 1023 10 16 0.00 0.00
8:35 am 08:35 Sunny 45 7 39 4 81 81 Calm 30.23 1024 10 16 0.00 0.00
8:55 am 08:55 Sunny 48 9 41 5 76 76 Calm 30.22 1023 10 16 0.00 0.00
9:15 am 09:15 Sunny 52 11 43 6 72 72 Calm 30.22 1023 10 16 0.00 0.00
9:35 am 09:35 Sunny 55 13 41 5 59 59 Calm 30.21 1023 10 16 0.00 0.00
9:55 am 09:55 Sunny 57 14 43 6 59 59 VRB 3 6 30.21 1023 10 16 0.00 0.00
10:15 am 10:15 Sunny 63 17 41 5 45 45 Calm 30.20 1023 10 16 0.00 0.00
10:35 am 10:35 Sunny 64 18 39 4 40 40 W 6 9 30.20 1023 10 16 0.00 0.00
10:55 am 10:55 Sunny 66 19 37 3 35 35 W 7 11 30.19 1023 10 16 0.00 0.00
11:15 am 11:15 Sunny 68 20 37 3 33 33 VRB 6 9 30.19 1022 10 16 0.00 0.00
11:35 am 11:35 Sunny 68 20 37 3 33 33 W 3 6 30.19 1022 10 16 0.00 0.00
11:55 am 11:55 Sunny 70 21 36 2 29 29 VRB 5 7 30.19 1022 10 16 0.00 0.00
12:15 pm 12:15 Sunny 72 22 36 2 27 27 NW 5 7 30.18 1022 10 16 0.00 0.00
12:35 pm 12:35 Sunny 73 23 36 2 25 25 W 7 11 30.16 1021 10 16 0.00 0.00
1:35 pm 13:35 Sunny 75 24 30 -1 19 19 WSW 7 11 30.14 1021 10 16 0.00 0.00
1:55 pm 13:55 Sunny 75 24 28 -2 18 18 W 7 11 30.13 1020 10 16 0.00 0.00
2:15 pm 14:15 Sunny 75 24 25 -4 15 15 VRB 5 7 30.12 1020 10 16 0.00 0.00
2:35 pm 14:35 Sunny 77 25 21 -6 12 12 SW 7 11 30.11 1020 10 16 0.00 0.00
2:55 pm 14:55 Sunny 77 25 19 -7 11 11 WSW 5 7 30.10 1019 10 16 0.00 0.00
3:15 pm 15:15 Sunny 79 26 21 -6 12 12 VRB 6 9 30.10 1019 10 16 0.00 0.00
3:35 pm 15:35 Sunny 79 26 18 -8 10 10 W 8 13 30.10 1019 10 16 0.00 0.00
3:55 pm 15:55 Sunny 79 26 19 -7 11 11 VRB 7 11 30.09 1019 10 16 0.00 0.00
4:15 pm 16:15 Sunny 79 26 18 -8 10 10 W 7 11 30.09 1019 10 16 0.00 0.00
4:35 pm 16:35 Sunny 79 26 23 -5 12 12 WSW 7 11 30.09 1019 10 16 0.00 0.00
4:55 pm 16:55 Sunny 79 26 21 -6 12 12 WSW 7 11 30.09 1019 10 16 0.00 0.00
5:15 pm 17:15 Sunny 77 25 23 -5 13 13 W 7 11 30.09 1019 10 16 0.00 0.00
5:35 pm 17:35 Sunny 77 25 25 -4 14 14 W 6 9 30.09 1019 10 16 0.00 0.00
5:55 pm 17:55 Sunny 75 24 25 -4 15 15 W 7 11 30.10 1019 10 16 0.00 0.00
6:15 pm 18:15 Sunny 75 24 27 -3 16 16 WSW 3 6 30.10 1019 10 16 0.00 0.00
6:35 pm 18:35 Sunny 73 23 28 -2 19 19 SW 3 6 30.11 1020 10 16 0.00 0.00
6:55 pm 18:55 Clear 70 21 28 -2 21 21 Calm 30.12 1020 10 16 0.00 0.00
7:15 pm 19:15 Mostly Clear 68 20 30 -1 24 24 Calm 30.13 1020 10 16 0.00 0.00
7:35 pm 19:35 Partly Cloudy 64 18 32 0 30 30 Calm 30.15 1021 10 16 0.00 0.00
7:55 pm 19:55 Partly Cloudy 64 18 32 0 30 30 Calm 30.15 1021 10 16 0.00 0.00
8:15 pm 20:15 Partly Cloudy 61 16 34 1 36 36 Calm 30.15 1021 10 16 0.00 0.00
8:35 pm 20:35 Mostly Cloudy 59 15 36 2 42 42 Calm 30.17 1022 10 16 0.00 0.00
8:55 pm 20:55 Mostly Cloudy 59 15 36 2 42 42 Calm 30.17 1022 10 16 0.00 0.00
9:15 pm 21:15 Partly Cloudy 57 14 34 1 41 41 Calm 30.17 1022 10 16 0.00 0.00
9:35 pm 21:35 Partly Cloudy 57 14 36 2 44 44 Calm 30.18 1022 10 16 0.00 0.00
9:55 pm 21:55 Partly Cloudy 55 13 36 2 47 47 Calm 30.18 1022 10 16 0.00 0.00
10:15 pm 22:15 Mostly Clear 55 13 37 3 51 51 Calm 30.19 1022 10 16 0.00 0.00
10:35 pm 22:35 Partly Cloudy 54 12 37 3 54 54 Calm 30.19 1022 10 16 0.00 0.00
10:55 pm 22:55 Partly Cloudy 52 11 37 3 58 58 Calm 30.21 1023 10 16 0.00 0.00
11:15 pm 23:15 Partly Cloudy 50 10 37 3 62 62 Calm 30.21 1023 10 16 0.00 0.00
11:35 pm 23:35 Mostly Cloudy 50 10 37 3 62 62 Calm 30.21 1023 10 16 0.00 0.00
11:55 pm 23:55 Mostly Cloudy 50 10 37 3 62 62 Calm 30.22 1023 10 16 0.00 0.00

Powered by AerisWeather